Weather History for Puerto Plata, Dominican Republic

Change the Weather History Date:

Monday, December 3, 2012

  Actual Average Record
Temperature  
Mean Temperature 74 °F -  
Max Temperature 81 °F 81 °F 87 °F (1997)
Min Temperature 68 °F 69 °F 39 °F (1998)
Cooling Degree Days 10    
Growing Degree Days 24 (Base 50)    
Moisture  
Dew Point 72 °F    
Average Humidity 91    
Maximum Humidity 100    
Minimum Humidity 74    
Precipitation  
Precipitation 0.00 in - - ()
Sea Level Pressure  
Sea Level Pressure 29.93 in    
Wind  
Wind Speed 4 mph ()    
Max Wind Speed 14 mph    
Max Gust Speed -    
Visibility 6.2 miles    
Events Rain    
Averages and records for this station are not official NWS values.
T = Trace of Precipitation, MM = Missing Value Source: Averaged Metar Reports

Daily Weather History Graph

Daily Weather History Graph

Search for Another Location

Airport:

Trip Planner

Search our weather history database for the weather conditions in past years. The results will help you decide how hot, cold, wet, or windy it might be!

Date:

Astronomy

Dec. 03, 2012 Rise Set
Actual Time 7:01 AM AST 6:02 PM AST
Civil Twilight 6:38 AM AST 6:26 PM AST
Nautical Twilight 6:10 AM AST 6:53 PM AST
Astronomical Twilight 5:44 AM AST 7:20 PM AST
Moon 10:25 PM AST (12/3) 10:40 AM AST (12/3)
Length of Visible Light 11h 47m
Length of Day
11h 00m
Waning Gibbous, 78% of the Moon is Illuminated
Dec 3
Waning Gibbous
Dec 6
Last Quarter
Dec 13
New
Dec 20
First Quarter
Dec 28
Full

Hourly Weather History & Observations

Time (AST) Temp. Heat Index Dew Point Humidity Pressure Visibility Wind Dir Wind Speed Gust Speed Precip Events Conditions
2:00 AM 70 °F - 68 °F 92% 29.97 in 10 mi Calm Calm - -   Partly Cloudy
2:00 AM 69.8 °F - 68.0 °F 94% 29.95 in 6.2 mi Calm Calm - N/A   Mostly Cloudy
5:00 AM 69.8 °F - 69.8 °F 100% 29.92 in 4.3 mi Calm Calm - N/A Rain Rain
8:00 AM 70 °F - 69 °F 97% 29.97 in 4 mi Calm Calm - - Rain Rain
8:00 AM 69.8 °F - 69.8 °F 100% 29.95 in 4.3 mi Calm Calm - N/A Rain Rain
9:00 AM 71.6 °F - 71.6 °F 100% 29.95 in 5.0 mi Calm Calm - N/A Rain Light Rain
10:00 AM 75.2 °F - 73.4 °F 94% 29.98 in 6.2 mi Calm Calm - N/A   Scattered Clouds
11:00 AM 78 °F - 74 °F 84% 29.99 in 10 mi West 4.5 mph - -   Mostly Cloudy
11:00 AM 77.0 °F - 71.6 °F 83% 29.98 in 6.2 mi ENE 9.2 mph - N/A   Mostly Cloudy
12:00 PM 77.0 °F - 71.6 °F 83% 29.98 in 6.2 mi ENE 9.2 mph - N/A   Mostly Cloudy
1:00 PM 80.6 °F 85.4 °F 73.4 °F 79% 29.95 in 6.2 mi ENE 11.5 mph - N/A   Mostly Cloudy
2:00 PM 80 °F - 73 °F 74% 29.95 in 10 mi ENE 13.4 mph - -   Mostly Cloudy
2:00 PM 78.8 °F - 73.4 °F 83% 29.95 in 6.2 mi ENE 13.8 mph - N/A   Mostly Cloudy
3:00 PM 77.0 °F - 75.2 °F 94% 29.86 in 6.2 mi NE 10.4 mph - N/A   Mostly Cloudy
4:00 PM 78.8 °F - 73.4 °F 83% 29.83 in 6.2 mi ENE 9.2 mph - N/A   Mostly Cloudy
5:00 PM 75 °F - 73 °F 91% 29.87 in 5 mi ESE 6.7 mph - - Rain Light Rain
5:00 PM 75.2 °F - 73.4 °F 94% 29.86 in 5.0 mi ESE 6.9 mph - N/A Rain Light Rain
6:00 PM 75.2 °F - 73.4 °F 94% 29.86 in 6.2 mi ENE 11.5 mph - N/A   Mostly Cloudy
7:00 PM 75.2 °F - 73.4 °F 94% 29.89 in 6.2 mi Calm Calm - N/A   Mostly Cloudy
8:00 PM 75.2 °F - 73.4 °F 94% 29.92 in 6.2 mi ENE 12.7 mph - N/A   Mostly Cloudy
11:00 PM 71.6 °F - 71.6 °F 100% 29.89 in 3.7 mi Calm Calm - N/A Rain Light Rain